Theta_e
318 320 321 320 320 323 323 323 324 325 326 336 352 351 354 352 350 348 346 345 344 344 342 342 344 345 346 348 349 350 350 349 348 349 347 347 346 346 346 346 343 347 347 347
320 320 320 320 321 322 322 323 322 323 337 346 349 352 349 353 352 350 346 345 345 343 342 342 344 346 346 347 348 349 349 349 349 349 348 346 346 346 346 345 343 343 345 345
321 321 320 322 322 323 320 321 321 324 339 342 347 345 346 351 350 346 344 344 344 344 343 342 343 346 347 347 348 349 349 349 349 348 347 347 347 346 346 344 341 343 346 346
319 319 320 320 319 319 320 320 321 323 338 337 338 342 338 341 349 351 348 346 345 345 342 343 342 345 347 347 347 348 349 349 350 349 347 346 346 346 345 344 341 343 348 347
321 323 322 324 324 320 321 330 335 337 336 335 339 343 338 346 346 346 348 349 346 344 343 343 343 345 347 347 348 348 349 349 350 349 347 346 345 345 344 341 345 348 349 348
320 321 322 322 323 320 328 331 322 327 330 328 334 340 338 336 340 341 345 347 347 343 343 342 344 345 347 348 348 347 348 349 349 349 348 347 345 344 342 343 345 345 347 349
321 321 321 321 322 322 321 320 321 323 327 330 332 340 338 333 335 339 339 341 345 344 342 341 344 346 347 347 348 348 348 348 348 349 349 348 346 344 343 343 344 344 345 346
323 324 322 320 321 321 321 318 319 326 327 323 330 338 336 338 336 334 338 337 343 342 340 339 344 346 348 342 346 348 348 348 348 349 348 349 347 344 343 344 343 345 347 347
320 321 321 321 320 319 321 320 318 320 321 326 325 332 334 335 338 335 340 339 339 344 343 340 343 346 347 346 343 346 348 348 348 348 348 348 347 345 345 346 345 345 347 348
322 323 322 323 319 319 320 318 322 317 327 327 324 335 340 339 340 337 340 342 342 338 343 342 343 346 346 343 343 347 348 348 348 348 348 347 347 345 345 346 347 346 346 347
317 321 325 322 323 321 319 319 316 316 318 324 329 332 330 339 339 338 343 344 341 340 341 342 343 346 346 344 341 345 348 348 347 347 347 346 347 346 346 346 348 347 346 347
318 316 321 326 323 322 318 321 319 324 330 323 326 332 329 339 340 342 345 342 341 342 339 342 343 345 347 346 347 347 347 347 348 347 347 347 347 346 346 346 348 347 347 347
323 321 324 325 323 325 331 327 321 321 323 329 334 331 332 331 334 334 342 337 340 344 342 342 343 344 347 347 347 348 348 348 347 348 347 347 347 347 347 347 347 347 347 349
326 318 323 327 325 324 332 331 327 325 328 328 330 331 334 335 333 332 333 339 336 343 345 342 342 342 344 346 346 347 348 348 348 348 349 349 349 348 348 348 347 348 347 348
324 327 327 326 321 326 328 329 329 329 327 331 329 332 332 331 331 330 331 333 336 337 342 344 343 342 343 346 347 347 348 349 349 349 349 349 349 349 349 348 348 348 349 348
320 330 328 330 331 328 332 330 328 329 330 328 333 330 330 329 329 333 334 334 336 338 336 339 343 343 343 345 348 349 349 350 349 350 350 350 349 349 349 349 349 349 349 348
322 326 328 332 329 328 331 329 329 332 338 336 336 332 338 333 331 331 335 335 336 336 336 337 340 343 344 345 346 348 349 350 350 350 350 350 350 350 350 350 351 352 351 351
320 324 325 328 328 335 328 336 336 339 343 341 341 340 338 338 338 335 335 336 336 337 335 336 336 339 343 344 345 346 348 349 350 350 350 350 349 350 349 350 351 351 351 352
314 320 324 328 328 327 329 335 337 338 338 340 341 338 337 336 336 333 334 335 335 335 334 334 335 336 337 338 344 346 346 348 348 349 349 350 349 350 350 349 350 350 351 351
316 316 321 323 329 331 332 333 333 334 338 338 339 339 337 335 338 337 333 335 333 332 333 335 334 335 336 338 343 346 347 347 348 348 348 349 349 348 349 349 350 350 351 351
324 325 323 323 326 328 332 333 333 339 333 338 340 339 335 334 333 332 331 332 331 333 333 333 335 336 334 337 339 349 348 349 349 348 348 349 349 349 349 350 353 354 353 351
326 328 329 327 335 337 329 332 335 332 333 336 336 335 335 332 331 331 330 329 330 333 333 334 335 336 335 335 336 338 341 344 351 351 350 350 350 350 352 355 354 351 348 344
326 321 323 325 327 324 327 335 330 329 330 330 333 331 331 331 330 330 329 328 328 331 334 337 338 333 338 339 339 337 337 336 352 353 352 352 352 353 354 354 347 338 334 327
321 318 321 322 323 331 331 330 327 329 330 329 329 328 328 328 327 327 326 326 326 328 333 336 338 336 336 337 337 337 343 343 352 351 343 343 348 348 349 346 339 329 324 325
320 321 320 320 320 322 322 324 323 323 324 324 322 322 323 323 323 323 323 324 324 325 332 334 334 335 337 339 339 342 343 346 347 341 335 336 335 334 337 333 327 325 326 326
317 320 321 322 318 321 320 320 321 323 324 322 320 320 320 320 320 320 321 322 323 323 325 332 331 331 334 338 338 342 342 345 339 337 335 334 332 329 324 326 325 327 328 326
Wind_Speed
4 4 5 9 6 3 3 3 5 18 10 8 13 13 12 12 8 7 10 10 9 16 12 22 27 29 28 30 30 31 29 26 24 23 19 17 19 18 16 13 11 10 9 7
6 5 9 1 3 4 3 5 10 12 4 6 0 12 9 10 10 12 9 10 12 5 7 11 20 24 29 32 31 32 31 28 26 22 20 18 20 20 18 13 12 12 12 13
6 6 5 3 3 4 5 5 5 7 4 3 2 8 5 3 6 6 7 6 8 12 11 10 17 22 25 28 32 33 33 30 26 22 19 15 14 16 16 14 14 13 12 11
5 5 5 4 6 7 5 8 10 5 1 4 3 5 5 3 6 6 10 9 8 9 7 8 14 20 24 28 29 32 31 31 26 23 21 22 17 16 16 16 15 13 11 12
7 3 4 3 6 5 9 4 1 3 1 3 3 2 8 3 5 6 11 12 12 10 9 13 15 21 24 20 21 26 29 29 27 26 25 22 19 17 16 14 13 11 11 11
7 2 5 8 5 7 3 4 6 4 3 3 1 2 6 3 5 5 4 10 13 12 11 7 13 18 19 14 18 26 29 28 28 27 26 24 21 17 17 16 13 12 10 12
6 5 4 4 1 2 5 6 3 4 5 5 1 0 8 9 7 5 8 8 10 12 11 10 14 20 27 26 25 26 28 28 28 28 28 26 23 21 19 18 15 13 13 14
2 8 3 4 7 8 7 8 6 4 3 6 2 4 5 4 8 7 7 5 5 7 7 11 16 23 25 24 24 23 25 28 29 30 29 28 25 21 22 19 17 14 14 13
4 6 3 5 5 7 3 4 3 7 3 3 3 7 7 4 10 9 8 7 2 6 6 9 15 25 25 19 21 24 27 30 29 31 29 29 27 23 23 20 19 15 11 13
5 5 3 5 4 2 5 6 4 3 1 3 5 5 5 11 11 11 10 8 6 5 6 8 9 19 22 26 27 23 29 31 31 30 29 29 29 26 22 20 19 18 15 11
5 4 10 4 2 3 1 1 7 5 4 4 1 6 7 7 7 7 7 6 4 4 7 6 8 20 24 29 27 22 28 26 29 29 30 29 29 27 24 22 20 18 17 15
4 5 3 5 4 3 2 4 4 5 3 2 3 6 5 7 7 8 8 5 4 4 6 7 10 19 22 23 23 26 28 28 32 29 28 29 27 25 25 25 23 20 18 16
2 1 2 7 7 3 2 3 5 5 3 5 5 6 3 5 9 7 8 7 4 3 6 8 8 13 20 22 23 27 29 35 32 30 27 25 26 25 24 24 25 21 20 18
3 2 4 7 6 3 2 3 3 4 4 5 6 6 7 7 7 9 5 5 6 4 5 5 6 6 18 23 26 29 31 31 31 29 26 24 25 24 23 22 24 23 23 21
4 1 1 4 6 4 5 5 7 6 4 6 5 8 8 7 8 7 2 6 6 7 5 6 7 7 11 16 22 25 26 27 27 25 23 24 22 20 19 20 20 21 20 21
2 2 1 5 3 6 5 6 7 5 2 6 1 6 2 8 7 5 9 8 4 7 7 7 6 7 10 16 19 22 25 24 23 23 23 21 19 17 18 16 16 17 18 17
2 4 2 4 2 6 5 6 5 4 3 2 5 5 6 8 9 10 11 7 5 6 7 5 6 6 11 20 23 24 26 24 23 24 23 21 19 17 17 15 16 16 17 17
2 3 2 4 2 4 4 6 4 7 2 2 4 5 7 8 8 3 8 11 13 10 8 9 5 12 13 11 16 22 23 25 25 25 24 23 21 19 18 18 17 15 15 17
6 5 2 3 4 4 4 4 4 3 3 3 3 6 6 9 4 2 12 12 7 8 6 6 12 12 12 13 5 10 16 20 24 27 27 26 24 22 20 20 19 17 17 16
6 5 4 2 3 6 1 2 3 1 3 4 2 3 6 9 3 4 10 11 11 14 10 11 16 15 14 9 9 0 12 19 25 29 31 29 28 26 24 22 19 18 18 15
3 3 3 2 3 4 4 9 1 5 3 1 2 3 3 3 3 8 9 9 11 11 11 11 12 13 11 6 3 7 6 18 25 23 28 29 29 28 25 21 18 15 10 11
2 2 1 1 0 4 6 3 3 2 3 1 2 4 4 5 7 7 7 6 7 9 15 10 10 6 6 8 5 3 4 9 14 18 20 25 26 26 23 21 17 16 15 13
1 4 3 6 4 4 4 0 2 2 2 1 2 4 6 8 6 8 6 7 6 7 8 8 3 2 3 4 4 6 7 7 6 13 16 20 25 26 26 25 22 20 17 15
2 3 1 2 3 3 2 1 1 1 3 4 4 5 4 7 8 8 7 7 7 7 3 2 6 4 5 3 5 6 6 9 10 17 14 5 14 25 27 23 22 21 20 18
4 1 2 4 6 5 7 6 6 6 5 6 5 5 7 6 9 7 8 7 12 15 3 7 7 3 5 5 5 4 4 5 8 4 1 9 14 14 27 25 21 19 16 15
4 6 4 6 7 5 6 7 4 6 6 7 5 8 12 8 11 10 9 14 14 18 16 13 13 8 6 8 6 10 14 13 22 23 26 30 24 26 4 21 21 16 15 13
Wind_Direction
9 68 244 237 202 207 267 253 259 288 270 224 225 240 222 212 215 206 209 216 218 218 227 213 202 196 198 207 211 213 210 209 209 201 196 209 211 213 212 214 215 220 224 237
12 265 244 194 194 219 234 290 281 277 315 170 181 262 251 197 215 201 201 215 224 212 185 175 178 185 196 202 211 212 210 206 205 206 202 205 213 215 212 218 229 227 245 259
170 235 104 154 261 248 217 198 257 229 340 314 337 293 281 241 175 175 214 205 193 205 189 174 175 178 191 196 206 211 210 210 210 208 198 197 208 223 220 219 224 231 242 216
221 252 230 189 211 172 301 214 247 277 209 266 25 285 297 323 270 222 229 211 201 209 182 176 178 181 188 202 212 214 211 209 210 209 203 200 200 199 215 220 220 237 223 210
245 227 205 263 245 154 237 30 70 26 51 357 15 45 271 345 283 254 237 224 209 207 193 188 189 185 187 194 200 214 215 208 210 207 209 206 210 212 207 206 212 208 205 217
243 248 191 214 253 181 140 62 40 51 48 9 340 128 293 348 289 316 236 233 209 202 196 182 171 162 161 177 197 221 222 214 212 210 211 212 210 205 204 206 201 208 217 220
314 254 264 164 307 66 82 66 341 343 358 230 288 150 250 298 306 243 291 239 215 197 183 162 159 153 161 173 201 213 220 217 216 215 217 216 215 211 209 209 212 217 225 232
292 330 206 170 189 199 189 155 156 222 232 277 272 252 261 236 301 317 317 255 203 189 195 170 175 177 187 193 187 199 214 222 218 215 217 219 219 217 216 216 219 229 237 237
169 272 283 216 174 141 161 168 183 103 23 32 267 296 294 306 345 0 355 24 326 228 205 184 185 183 190 169 205 203 212 219 221 218 218 220 221 220 217 221 223 229 236 236
222 295 226 295 98 46 177 159 71 17 160 273 297 291 247 330 321 331 345 351 341 206 203 172 188 177 187 176 197 206 219 221 225 223 223 222 222 223 225 228 229 232 242 251
152 148 274 344 6 201 77 323 53 113 115 167 300 281 218 262 283 288 293 302 322 140 182 180 147 174 185 191 208 204 215 220 226 224 224 223 225 226 228 231 233 235 238 240
208 152 238 254 293 207 189 155 128 122 211 103 144 273 236 232 259 262 280 284 317 128 165 157 143 169 182 189 199 204 211 218 222 226 224 225 227 227 228 230 233 235 239 242
184 275 360 352 348 6 67 86 109 105 89 188 139 265 317 291 295 271 276 285 302 178 156 151 155 168 177 188 198 202 217 219 220 221 221 224 229 226 227 233 233 238 241 241
139 117 174 199 218 184 197 178 147 112 123 176 222 276 298 279 279 298 310 288 299 238 194 172 162 189 180 187 190 197 207 212 217 217 217 221 226 227 230 233 233 237 241 246
79 103 346 271 258 263 216 205 178 186 187 165 255 205 260 286 290 291 353 320 268 300 265 235 185 194 197 192 190 200 209 210 215 215 217 223 225 225 231 235 237 238 243 248
357 270 211 337 354 341 286 228 187 209 161 280 243 273 284 294 273 310 339 323 291 310 304 277 253 184 202 206 210 208 212 212 211 218 222 223 222 218 221 226 231 238 244 247
205 158 73 257 335 329 300 249 213 131 92 126 205 248 329 313 324 17 358 7 331 312 293 292 296 282 215 213 222 222 219 214 214 215 220 220 214 214 217 222 230 239 245 250
196 125 139 234 45 244 242 4 55 110 127 236 280 302 296 283 303 40 10 0 353 354 325 324 5 2 352 304 243 228 223 219 216 218 219 218 214 214 213 218 226 234 245 253
186 130 199 180 198 282 124 360 13 42 238 189 232 312 315 316 308 113 14 5 335 320 320 353 12 38 33 25 2 246 233 228 221 224 223 222 218 215 214 219 225 233 243 253
70 84 126 139 181 221 285 332 7 6 275 156 185 360 349 348 27 297 346 342 345 349 346 22 53 49 39 358 22 246 235 228 232 231 233 230 224 221 220 224 227 235 242 242
355 16 161 178 223 288 291 317 296 144 240 110 332 321 17 29 214 276 312 321 321 341 351 5 32 45 41 16 320 27 247 237 252 251 248 233 229 226 224 223 220 219 205 178
166 115 230 103 218 251 349 342 118 242 320 352 303 306 311 284 283 288 301 307 322 336 0 11 358 17 36 36 7 338 336 343 270 257 246 250 236 221 213 208 200 186 171 157
277 178 202 173 224 251 278 282 177 176 237 264 246 276 278 290 290 300 306 322 314 320 15 7 10 155 346 338 318 301 319 296 269 224 220 230 226 216 199 193 176 164 153 144
265 154 174 25 267 233 249 278 334 272 250 272 232 237 249 270 294 301 308 311 315 330 47 123 138 155 256 19 329 341 288 262 194 172 139 107 239 199 184 176 164 161 148 133
208 143 194 257 279 290 277 243 259 273 282 292 300 267 279 278 281 275 292 302 309 310 216 176 181 162 104 133 115 97 150 199 156 130 156 129 266 224 165 154 158 155 143 134
193 206 173 233 228 192 242 266 247 252 260 261 270 302 305 296 284 285 275 281 287 293 298 211 213 215 218 199 182 176 154 155 127 130 130 136 102 330 133 146 147 156 144 131